Location: Ceske Budejovice
(48.9830°N, 14.4670°E)
Time: 19:36:08
(UTC+02:00)

EO-79 - Visible Passes

Search period start: 18 July 2019 00:00
Search period end: 28 July 2019 00:00
Orbit: 593 x 609 km, 97.9° (Epoch: 17 July)

Date Brightness Start Highest point End Pass type
(mag) Time Alt. Az. Time Alt. Az. Time Alt. Az.
18 Jul ? 00:55:50 10° NE 00:59:32 28° E 01:00:24 26° ESE visible
18 Jul ? 02:31:26 10° N 02:35:18 34° WNW 02:37:10 23° WSW visible
19 Jul ? 01:07:06 10° NNE 01:11:04 36° E 01:11:55 32° ESE visible
19 Jul ? 02:43:03 10° N 02:46:40 27° WNW 02:48:42 19° WSW visible
20 Jul ? 01:18:25 10° NNE 01:22:34 46° E 01:23:27 40° SE visible
20 Jul ? 02:54:45 10° NNW 02:58:01 22° WNW 03:00:13 15° W visible
21 Jul ? 01:29:48 10° NNE 01:34:03 61° ESE 01:34:58 48° SSE visible
21 Jul ? 03:06:30 10° NNW 03:09:21 18° WNW 03:11:45 12° W visible
22 Jul ? 01:41:13 10° NNE 01:45:31 79° ESE 01:46:30 52° S visible
22 Jul ? 03:18:24 10° NNW 03:20:40 14° WNW 03:22:56 10° W visible
23 Jul ? 00:18:57 10° ENE 00:20:40 12° E 00:21:15 12° E visible
23 Jul ? 01:52:40 10° NNE 01:56:58 80° WNW 01:58:01 50° SSW visible
23 Jul ? 03:30:35 10° NW 03:31:58 11° NW 03:33:21 10° WNW visible
24 Jul ? 00:29:39 10° NE 00:32:16 16° E 00:32:46 15° E visible
24 Jul ? 02:04:09 10° N 02:08:24 62° WNW 02:09:32 44° SW visible
25 Jul ? 00:40:38 10° NE 00:43:49 20° E 00:44:17 20° E visible
25 Jul ? 02:15:41 10° N 02:19:49 47° WNW 02:21:03 36° WSW visible
26 Jul ? 00:51:48 10° NE 00:55:22 25° E 00:55:48 25° ESE visible
26 Jul ? 02:27:14 10° N 02:31:12 37° WNW 02:32:34 29° WSW visible
27 Jul ? 01:03:01 10° NNE 01:06:54 32° E 01:07:19 32° ESE visible
27 Jul ? 02:38:51 10° N 02:42:34 29° WNW 02:44:05 23° W visible
